Location: Unspecified
(0.0000°N, 0.0000°E)
Time: 23:52:51
(UTC+00:00)

S-56A Canister/Altair - Pass Details

Date: 09 October 2020
Orbit: 633 x 2499 km, 38.9° (Epoch: 28 October)

Event Time Altitude Azimuth Distance (km) Brightness Sun altitude
Rises 17:40:57 0° 326° (NW) 6,069 12.5 1.5°
Reaches altitude 10° 17:45:49 10° 335° (NNW) 4,906 11.9 0.3°
Maximum altitude 17:57:21 33° 33° (NNE) 2,833 10.1 -2.5°
Drops below altitude 10° 18:05:53 10° 94° (E) 3,638 10.3 -4.7°
Enters shadow 18:07:42 - 100° (E) 4,066 10.6 -5.1°
Sets 18:08:51 0° 103° (ESE) 4,361 - -5.4°
